This is the latest recevied weather packets stored in our database for station/object SP1BMW-13. If no packets are shown the sender has not sent any weather packets the latest 10 day(s).
| Time | Temp. | Humidity | Pressure | Rain* | Wind** | Luminosity | Snow |
|---|---|---|---|---|---|---|---|
| 1778146553 | 11.11° C | 64% | 1013.6 hPa | 0 mm | 0.89 m/s, 320° | 310 W/m² | - |
| 1778146493 | 11.11° C | 65% | 1013.4 hPa | 0 mm | 2.24 m/s, 67° | 301 W/m² | - |
| 1778146433 | 11.11° C | 66% | 1013.4 hPa | 0 mm | 0.45 m/s, 57° | 295 W/m² | - |
| 1778146373 | 11.11° C | 68% | 1013.5 hPa | 0 mm | 1.34 m/s, 31° | 283 W/m² | - |
| 1778146314 | 11.11° C | 66% | 1013.3 hPa | 0 mm | 1.34 m/s, 300° | 283 W/m² | - |
| 1778146253 | 11.11° C | 64% | 1013.3 hPa | 0 mm | 1.34 m/s, 319° | 299 W/m² | - |
| 1778146194 | 10.56° C | 65% | 1013.4 hPa | 0 mm | 1.34 m/s, 34° | 345 W/m² | - |
| 1778146134 | 10.56° C | 67% | 1013.2 hPa | 0 mm | 0.89 m/s, 47° | 285 W/m² | - |
| 1778146074 | 10.56° C | 67% | 1013.3 hPa | 0 mm | 0.89 m/s, 44° | 271 W/m² | - |
| 1778146013 | 10.56° C | 67% | 1013.2 hPa | 0 mm | 0.89 m/s, 38° | 255 W/m² | - |
| 1778145954 | 10.56° C | 67% | 1013.2 hPa | 0 mm | 1.34 m/s, 330° | 229 W/m² | - |
| 1778145894 | 10.56° C | 65% | 1013.1 hPa | 0 mm | 4.92 m/s, 1° | 227 W/m² | - |
| 1778145833 | 11.11° C | 66% | 1013.3 hPa | 0 mm | 1.79 m/s, 352° | 238 W/m² | - |
| 1778145774 | 11.11° C | 65% | 1013.3 hPa | 0 mm | 3.13 m/s, 7° | 263 W/m² | - |
| 1778145713 | 11.11° C | 66% | 1013.2 hPa | 0 mm | 0.45 m/s, 38° | 276 W/m² | - |
| 1778145653 | 11.67° C | 64% | 1013.3 hPa | 0 mm | 2.24 m/s, 32° | 311 W/m² | - |
| 1778145593 | 11.67° C | 64% | 1013.1 hPa | 0 mm | 1.79 m/s, 53° | 323 W/m² | - |
| 1778145534 | 11.67° C | 63% | 1013.3 hPa | 0 mm | 4.47 m/s, 299° | 330 W/m² | - |
| 1778145473 | 11.67° C | 63% | 1013.1 hPa | 0 mm | 2.68 m/s, 283° | 348 W/m² | - |
| 1778145414 | 11.67° C | 66% | 1013.2 hPa | 0 mm | 1.34 m/s, 311° | 369 W/m² | - |
| 1778145353 | 11.67° C | 63% | 1013.2 hPa | 0 mm | 1.79 m/s, 35° | 716 W/m² | - |
| 1778145293 | 11.67° C | 64% | 1013 hPa | 0 mm | 1.34 m/s, 333° | 479 W/m² | - |
| 1778145234 | 11.67° C | 67% | 1013.2 hPa | 0 mm | 0 m/s | 702 W/m² | - |
| 1778145173 | 11.67° C | 66% | 1013.3 hPa | 0 mm | 2.68 m/s, 44° | 739 W/m² | - |
| 1778145114 | 11.67° C | 66% | 1013.1 hPa | 0 mm | 0.89 m/s, 25° | 428 W/m² | - |
* Rain latest hour (hover to see other rain measurements)
** Current wind speed in m/s (hover to see current wind gust speed)